Date,TemperatureHighF,TemperatureAvgF,TemperatureLowF,DewpointHighF,DewpointAvgF,DewpointLowF,HumidityHigh,HumidityAvg,HumidityLow,PressureMaxIn,PressureMinIn,WindSpeedMaxMPH,WindSpeedAvgMPH,GustSpeedMaxMPH,PrecipitationSumIn
2013-4-1,48.1,40.1,30.3,41.0,25.3,17.0,80,57,39,30.08,29.71,14,4,19,0.00
2013-4-2,44.9,33.0,19.9,21.0,17.2,14.0,80,55,34,30.24,30.09,10,2,16,0.00
2013-4-3,45.8,34.3,20.9,19.0,14.6,11.0,72,47,26,30.41,30.24,11,2,16,0.00
2013-4-4,54.6,39.8,29.7,21.0,15.1,6.0,56,39,18,30.36,29.96,9,1,14,0.00
2013-4-5,56.6,42.6,27.5,35.0,24.6,21.0,78,52,31,30.13,29.93,10,2,15,0.00
2013-4-6,60.8,46.9,32.5,25.0,20.0,15.0,65,37,22,30.23,29.89,10,3,16,0.00
2013-4-7,74.9,63.0,53.0,46.0,39.0,23.0,54,42,31,29.93,29.80,21,6,25,0.00
2013-4-8,71.6,63.1,53.8,53.0,50.0,38.0,84,64,50,29.93,29.80,15,4,24,0.00
2013-4-9,81.5,69.0,52.5,59.0,54.0,49.0,89,61,40,30.00,29.83,22,4,27,0.00
2013-4-10,82.2,69.3,60.1,65.0,58.8,55.0,87,70,47,29.87,29.70,13,5,24,0.05
2013-4-11,65.0,59.9,53.0,61.0,56.5,49.0,92,88,80,29.79,29.48,9,1,15,0.71
2013-4-12,58.8,48.0,41.9,57.0,42.0,34.0,92,80,65,29.87,29.41,21,6,25,0.11
2013-4-13,53.3,44.2,35.7,40.0,35.2,31.0,83,71,54,30.01,29.86,15,5,19,0.00
2013-4-14,66.6,50.3,34.3,42.0,36.7,31.0,89,63,38,30.09,29.89,8,2,14,0.00
2013-4-15,69.4,60.4,46.8,53.0,47.5,39.0,79,63,47,29.96,29.87,10,2,14,0.00
2013-4-16,77.9,62.7,55.8,63.0,55.6,50.0,91,78,60,30.14,29.93,15,3,20,0.39
2013-4-17,69.2,59.7,52.8,61.0,55.4,50.0,92,86,74,30.20,29.97,13,2,17,0.06
2013-4-18,84.0,71.2,59.8,65.0,57.8,54.0,89,66,38,29.98,29.61,22,5,31,0.00
2013-4-19,72.5,51.4,39.6,59.0,41.7,30.0,89,70,51,29.93,29.37,20,7,26,0.32
2013-4-20,49.1,40.0,32.2,32.0,29.2,26.0,86,67,47,30.44,29.94,13,4,23,0.02
2013-4-21,54.9,42.8,29.0,30.0,25.5,23.0,81,53,30,30.59,30.43,8,2,14,0.00
2013-4-22,68.5,52.7,32.9,42.0,33.4,24.0,75,50,31,30.43,30.14,9,1,11,0.00
2013-4-23,71.7,59.5,44.9,51.0,41.0,32.0,70,52,35,30.15,29.86,11,2,19,0.00
2013-4-24,63.2,51.3,36.1,55.0,44.2,32.0,90,78,61,30.19,29.73,10,3,20,0.57
2013-4-25,57.0,43.9,32.9,39.0,33.3,27.0,91,69,47,30.38,30.19,14,4,22,0.00
2013-4-26,61.6,46.5,30.1,38.0,31.6,27.0,90,60,32,30.48,30.36,6,0,10,0.00
2013-4-27,70.9,55.8,37.1,47.0,37.0,32.0,84,54,25,30.37,30.07,7,1,14,0.00
2013-4-28,64.8,58.1,54.3,58.0,53.4,46.0,91,84,68,30.07,29.80,10,1,14,0.54
2013-4-29,65.8,59.7,53.8,57.0,54.8,51.0,92,84,68,29.95,29.85,5,1,9,0.06
2013-4-30,76.6,62.5,48.8,57.0,52.8,46.0,92,73,44,30.05,29.95,5,0,10,0.00